Regional Weather Roundup
Issued by NWS

Home | Current Version | Previous Version | Graphics & Text | Print | Product List | Glossary On
Versions: 1 2 3 4 5 6 7 8 9 10 11 12 13 14 15 16 17 18 19 20 21 22 23 24 25 26 27 28 29 30 31 32 33 34 35 36 37 38 39 40 41 42 43 44 45 46 47 48 49 50
905
ASUS43 KIND 240659
RWRIN

WEATHER ROUNDUP FOR INDIANA
NATIONAL WEATHER SERVICE INDIANAPOLIS IN
300 AM EDT SUN JUL 24 2016

NOTE: "FAIR" INDICATES FEW OR NO CLOUDS BELOW 12,000 FEET WITH NO
SIGNIFICANT WEATHER AND/OR OBSTRUCTIONS TO VISIBILITY.

* - STATION DOES NOT REPORT WEATHER SUCH AS PRECIPITATION OR FOG.

+ - STATION NOT QUALITY CONTROLLED BY THE NATIONAL WEATHER SERVICE.
    USE DATA WITH CAUTION...ESPECIALLY DEWPOINT AND RELATIVE
    HUMIDITY OBSERVATIONS.

INZ001>003-010>013-019-020-240800-
NORTHWEST INDIANA

CITY           SKY/WX    TMP DP  RH WIND       PRES   REMARKS
KNOX *+        CLOUDY    70  68  94 CALM      30.00F
MONTICELLO +   DRIZZLE   70  66  85 N8G16     30.00F

$$

LMZ046-743>745-240800-
SOUTHERN LAKE MICHIGAN

STATION/POSITION TIME  TEMP    WIND        PRES    WAVE
                       AIR SEA DIR/SP/G            HT
                 (UTC) (F)     (DEG/KT/KT) (MB)    (FT)
BURNS HARBOR     0602   71     200/  8/ 17 1016.6F
MICHIGAN CITY    0600   70     170/ 10/ 12   N/A
5NW MICH CITY    0610   71 73  220/ 10/ 14   N/A     2

$$

INZ004-005-014>016-021>024-240800-
NORTH CENTRAL INDIANA

CITY           SKY/WX    TMP DP  RH WIND       PRES   REMARKS
GOSHEN         TSTM      72  68  87 W23G30    30.02R FOG
PERU/GRISSOM   LGT RAIN  75  68  78 N17G33    30.03R
SOUTH BEND     HVY RAIN  70  70 100 SW7       30.01F FOG
WARSAW +       HVY RAIN  70  70 100 W26       30.03R

$$

INZ006>009-017-018-025>027-240800-
NORTHEAST INDIANA

CITY           SKY/WX    TMP DP  RH WIND       PRES   REMARKS
ANGOLA *+        N/A     75  68  78 CALM      29.98S
FORT WAYNE     CLOUDY    77  73  87 SW7       29.99R

$$

INZ028-029-035-036-043>045-051>053-240800-
WEST CENTRAL INDIANA

CITY           SKY/WX    TMP DP  RH WIND       PRES   REMARKS
CRAWFORDSVL +  CLOUDY    72  72 100 CALM      29.99F
LAFAYETTE      CLOUDY    73  69  87 N10G21    30.01R
TERRE HAUTE    CLOUDY    76  73  91 CALM      29.97F FOG

$$

INZ030>032-037>040-046>048-054>057-064-065-240800-
CENTRAL INDIANA

CITY           SKY/WX    TMP DP  RH WIND       PRES   REMARKS
FRANKFORT +    CLOUDY   N/A N/A N/A N3        30.03S
INDIANAPOLIS   PTCLDY    78  73  84 NW3       30.00S
-EAGLE CREEK   CLOUDY    78  73  84 MISG      29.98F
KOKOMO *+      CLOUDY    75  66  73 NW26G35   30.04R
SHELBYVILLE    CLOUDY    75  71  87 CALM      29.98F
ZIONSVILLE +   CLOUDY    73  72  99 CALM      30.02R

$$

INZ033-034-041-042-049-050-058-059-240800-
EAST CENTRAL INDIANA

CITY           SKY/WX    TMP DP  RH WIND       PRES   REMARKS
MUNCIE         PTCLDY    80  73  79 SW5       30.00S

$$

INZ060-061-067>069-081>083-085>088-240800-
SOUTHWEST INDIANA

CITY           SKY/WX    TMP DP  RH WIND       PRES   REMARKS
EVANSVILLE     CLEAR     77  75  93 CALM      29.96S FOG
HUNTINGBURG *+ CLOUDY    77  73  88 NE3       29.98S
WASHINGTON +   CLEAR     75  75 100 MISG      29.97S FOG

$$

INZ062-063-066-070>080-084-089>092-240800-
SOUTH CENTRAL AND SOUTHEAST INDIANA

CITY           SKY/WX    TMP DP  RH WIND       PRES   REMARKS
BLOOMINGTON    CLEAR     75  72  90 CALM      29.99F FOG
MADISON *+     CLEAR     75  73  94 CALM      30.03R
SEYMOUR +      CLEAR     75  73  94 CALM      29.99S FOG

$$





USA.gov is the U.S. government's official web portal to all federal, state and local government web resources and services.